Tracking 18850 objects as of 22-Nov-2017
HD Live streaming from Space Station
objects crossing your sky now

FENGYUN 1C DEB

Track FENGYUN 1C DEB now!
10-day predictions


NORAD ID: 31229
Int'l Code: 1999-025BLK
Perigee: 823.5 km
Apogee: 913.4 km
Inclination: 99.1 °
Period: 102.2 minutes
Semi major axis: 7239 km
RCS: 0.015 m2 (small)
Launch date: May 10, 1999
Source: People's Republic of China (PRC)
Launch site: Taiyaun Space Center, China (TSC)

Note: This is SATELLITE DEBRIS
aabbcc
Your satellite tracking list
Your tracking list is empty




NASA's NSSDC Master Catalog

Two Line Element Set (TLE):
1 31229U 99025BLK 17324.76872420  .00000654  00000-0  39374-3 0  9999
2 31229  99.0688 355.1052 0062113 335.5875  79.7381 14.09430705545359
Source of the keplerian elements: AFSPC